Regional Weather Roundup
Issued by NWS Boston, MA

Home | Current Version | Previous Version | Text Only | Print | Product List | Glossary On
Versions: 1 2 3 4 5 6 7 8 9 10 11 12 13 14 15 16 17 18 19 20 21 22 23 24 25 26 27 28 29 30 31 32 33 34 35 36 37 38 39 40 41 42 43 44 45 46 47 48 49 50
223
ASUS41 KBOX 190010
RWRBOX

REGIONAL WEATHER ROUNDUP
NATIONAL WEATHER SERVICE TAUNTON MA
700 PM EST WED JAN 18 2017

NOTE:  "FAIR" INDICATES FEW OR NO CLOUDS BELOW 12,000 FEET WITH NO
SIGNIFICANT WEATHER AND/OR OBSTRUCTIONS TO VISIBILITY.

MAZALL-190100-
EASTERN MASSACHUSETTS

CITY           SKY/WX    TMP DP  RH WIND       PRES   REMARKS
BOSTON         MIX PCPN  34  34 100 N12       30.05R FOG     WCI  25
6HR MIN TEMP:  34; 6HR MAX TEMP:  40; 6HR PCP:  0.06;

BEVERLY        LGT RAIN  33  33 100 N10       30.04R FOG     WCI  25
LAWRENCE       CLOUDY    31  30  96 N8        30.07R FOG     WCI  23
BEDFORD        CLOUDY    32  29  88 N5        30.04S FOG     WCI  27
BLUE HILL        N/A     32  31  96 NW10      30.00R WCI  24
NORWOOD        CLOUDY    36  34  92 N8        30.04R FOG     WCI  30
MARSHFIELD       N/A     41  39  93 E10       30.02R
PLYMOUTH       CLOUDY    39  37  92 NE9       30.01R FOG
TAUNTON        CLOUDY    40  38  93 N3        30.01R FOG
NEW BEDFORD    CLOUDY    41  39  93 N3        30.00R FOG
$$

MAZALL-190100-
CAPE COD AND THE ISLANDS

CITY           SKY/WX    TMP DP  RH WIND       PRES   REMARKS
FALMOUTH       DRIZZLE  N/A N/A N/A MISG      29.99  FOG
HYANNIS        LGT RAIN  40  38  93 NE6       29.97R FOG
CHATHAM        CLOUDY    41  39  93 NE13      29.99S FOG
PROVINCETOWN   CLOUDY    40  36  86 E12       30.01R
NANTUCKET      CLOUDY    41  38  89 NE14      29.95R FOG
MARTHAS VNYRD  CLOUDY    40  39  97 NE13      29.97S FOG
$$

MAZALL-190100-
CENTRAL AND WESTERN MASSACHUSETTS

CITY           SKY/WX    TMP DP  RH WIND       PRES   REMARKS
WORCESTER      FOG       30  29  96 N6        30.00R VSB 1/4 WCI  24
6HR MIN TEMP:  30; 6HR MAX TEMP:  31;

FITCHBURG      CLOUDY    34  32  92 VRB3      30.05S FOG
ORANGE         CLOUDY    32  32 100 N6        30.04R WCI  26
SPRINGFIELD    CLOUDY    34  32  93 NW3       30.03S
WESTFIELD      CLOUDY    34  33  96 N6        30.04R WCI  29
NORTH ADAMS    MIX PCPN  34  32  92 SE3       30.03R
PITTSFIELD     CLOUDY    32  31  96 CALM      30.00R FOG
$$

RIZALL-190100-
RHODE ISLAND

CITY           SKY/WX    TMP DP  RH WIND       PRES   REMARKS
PROVIDENCE     CLOUDY    38  36  92 N10       30.02R FOG     WCI  31
6HR MIN TEMP:  38; 6HR MAX TEMP:  41; 6HR PCP:  0.02;

NEWPORT        CLOUDY    40  40 100 N8        30.00R FOG
SMITHFIELD     MIX PCPN  33  33 100 N9        30.02R FOG     WCI  25
WESTERLY       CLOUDY    41  37  86 N7        30.01R
$$

CTZALL-190100-
CONNECTICUT

CITY           SKY/WX    TMP DP  RH WIND       PRES   REMARKS
BRADLEY INTL   CLOUDY    35  33  92 N6        30.04R WCI  30
6HR MIN TEMP:  35; 6HR MAX TEMP:  37; 6HR PCP: TRACE;

HARTFORD       CLOUDY    36  34  92 N6        30.04S WCI  31
BRIDGEPORT     LGT RAIN  41  35  79 N7        30.03R
DANBURY        CLOUDY    38  34  85 CALM      30.04R
GROTON         CLOUDY    38  36  92 N12       30.01R WCI  30
NEW HAVEN      CLOUDY    38  35  89 N10       30.03R WCI  31
CHESTER        CLOUDY    37  36  93 N7        30.01R FOG
MERIDEN        CLOUDY    39  33  79 N8        30.04R
WILLIMANTIC    CLOUDY    37  35  92 N6        30.04R
OXFORD         CLOUDY    36  32  87 N8        30.02R WCI  29
$$

MEZ002-015-021-024-NHZ003-005-008-011-012-014-VTZ005-008-190100-
NORTHERN NEW ENGLAND

CITY           SKY/WX    TMP DP  RH WIND       PRES   REMARKS
PORTLAND ME    CLOUDY    28  23  81 N7        30.09S WCI  21
6HR MIN TEMP:  28; 6HR MAX TEMP:  29; 6HR PCP:  0.06;

BANGOR ME      CLOUDY    25  18  74 NE5       30.13S WCI  19
CONCORD NH     CLOUDY    30  25  81 N6        30.07R WCI  24
MANCHESTER NH  NOT AVBL
NASHUA NH      NOT AVBL
PORTSMOUTH NH  LGT SNOW  29  27  91 N8        30.06R FOG     WCI  21
JAFFREY NH     NOT AVBL
KEENE NH       NOT AVBL
BURLINGTON VT  CLOUDY    35  33  92 S10       29.97S WCI  27
MT. WASHINGTON NOT AVBL
$$

NYZ052-076-190100-
EASTERN NEW YORK

CITY           SKY/WX    TMP DP  RH WIND       PRES   REMARKS
ALBANY         DRZL/FOG  35  33  92 CALM      30.04S VSB 1
6HR MIN TEMP:  34; 6HR MAX TEMP:  37; 6HR PCP: TRACE;

NEW YORK CITY  CLOUDY    42  37  82 N9        30.04R
6HR MIN TEMP:  42; 6HR MAX TEMP:  45;

$$

ANZALL-190100-
MARINE OBSERVATIONS

STATION/POSITION TIME  TEMP    WIND        PRES    VSBY  WAVE
                       AIR SEA DIR/SP/G                  HT/PER
                 (UTC) (F)     (DEG/KT/KT) (MB)    (MI)  (FT/S)
BOSTON BUOY      2250   42 45   70/ 14/ 17 1015.1         10/ 9
BUZZARDS BAY     0000   39      20/ 14/ 15 1015.9R
NANTUCKET SOUND  2250   43 43   60/ 17/ 23 1013.7          4/ 5
MASS BAY-STELLWA 2304   41 44   60/ 16/ 17 1015.9R  1 5/8 10/ 9
ISLE OF SHOALS   0000   33      10/ 19/ 21 1017.5R
S OF BLOCK IS    2355      47                N/A           7/ 8
$$

......................KEY.........................
  SKY/WX - SKY CONDITION/PRESENT WEATHER
  TMP    - TEMPERATURE IN FAHRENHEIT
  DWPT   - DEWPOINT IN FAHRENHEIT
  RH     - RELATIVE HUMIDITY IN PERCENT
  WIND   - DIRECTION AND SPEED IN MPH
  PRES   - MEAN SEA LEVEL PRESSURE IN INCHES OF HG
  WCI    - WIND CHILL INDEX
  VSB    - VISIBILITY IN MILES
  HX     - HEAT INDEX
  TC     - TEMPERATURE IN CELSIUS
  VRB    - VARIABLE WIND DIRECTION
  N/A    - NOT AVAILABLE




USA.gov is the U.S. government's official web portal to all federal, state and local government web resources and services.